#timestamp,LO_Frequency,Hit,StdDev 
1588320015.7,286046994.1,N
1588320035.5,286046996.4,N
1588320055.4,286046993.9,N
1588320075.2,286046994.2,N
1588320095.0,286046994.7,N
1588320095.9,286046994.7,N
1588320115.8,286046992.9,N
1588320135.6,286046994.0,N
1588320155.5,286046994.0,N
1588320175.3,286046992.0,Y
1588320195.1,286046993.3,P
1588320215.9,286046994.0,P
1588320235.7,286046994.0,P
1588320255.6,286046994.7,Y
1588320275.4,286046998.7,P
1588320295.2,286046997.0,N
1588320315.1,286046997.2,N
1588320316.0,286046997.2,N
1588320335.8,286046997.7,N
1588320355.7,286046994.9,Y
1588320375.5,286046998.5,P
1588320395.3,286046998.3,N
1588320415.2,286047000.8,N
1588320435.0,286047002.8,N
1588320435.9,286047002.8,N
1588320455.8,286047003.2,N
1588320475.6,286047003.8,N
1588320495.4,286047001.5,N
1588320515.3,286047001.9,N
1588320535.1,286047002.0,N
1588320555.8,286047001.5,N
1588320575.7,286047002.3,N
1588320595.5,286047002.6,N
1588320615.4,286047000.2,N
1588320635.2,286047002.2,N
1588320655.0,286047001.4,N
1588320655.9,286047001.4,N
1588320675.8,286047002.4,N
1588320695.6,286047001.9,N
1588320715.5,286047001.6,N
1588320735.3,286046999.8,N
1588320755.1,286047001.6,N
1588320775.9,286047001.9,N
1588320795.7,286047001.5,N
1588320815.6,286047001.4,N
1588320835.4,286047002.4,N
1588320855.2,286047002.3,N
1588320875.1,286047002.5,N
1588320876.0,286047002.5,N
1588320895.8,286047001.4,N
1588320915.6,286047004.4,Y
1588320935.5,286047001.2,P
1588320955.3,286047002.5,P
1588320975.2,286047001.9,P
1588320995.9,286047000.9,N
1588321015.7,286047004.3,Y
1588321035.6,286047002.5,P
1588321055.4,286047002.6,P
1588321075.3,286047002.6,P
1588321095.1,286047002.2,Y
1588321115.8,286047000.5,P
1588321135.7,286046999.9,N
1588321155.5,286047001.0,N
1588321175.4,286046999.9,N
1588321195.2,286047003.9,Y
1588321215.0,286047001.9,P
1588321215.9,286047001.9,P
1588321235.8,286046999.8,N
1588321255.6,286047000.4,N
1588321275.5,286046999.8,N
1588321295.3,286047002.7,Y
1588321315.1,286046998.1,P
1588321335.9,286046998.2,N
1588321355.7,286046997.0,N
1588321375.5,286046998.4,N
1588321395.4,286046995.2,Y
1588321415.2,286046996.5,P
1588321435.1,286046998.1,N
1588321436.0,286046998.1,N
1588321455.8,286046998.6,N
1588321475.7,286047000.9,N
1588321495.5,286047002.7,N
1588321515.3,286047002.8,N
1588321535.2,286047002.4,N
1588321555.0,286047000.2,N
1588321555.9,286047000.2,N
1588321575.7,286047002.2,N
1588321595.6,286047002.5,N
1588321615.4,286047001.4,N
1588321635.3,286047001.7,N
1588321655.1,286047001.8,N
1588321656.0,286047001.8,N
1588321675.8,286047002.7,N
1588321695.7,286047000.2,N
1588321715.5,286047000.3,N
1588321735.4,286047000.6,N
1588321755.2,286047002.1,N
1588321775.0,286047001.5,N
1588321775.9,286047001.5,N
1588321795.8,286047000.2,N
1588321815.6,286047000.2,N
1588321835.4,286047002.7,N
1588321855.3,286047001.0,N
1588321875.1,286046998.6,N
1588321895.9,286046994.9,Y
1588321915.7,286046996.0,P
1588321935.5,286046994.5,N
1588321955.4,286046995.1,N
1588321975.2,286046998.3,N
1588321995.1,286047000.6,N
1588321996.0,286047000.6,N
1588322015.8,286047000.0,N
1588322035.6,286046998.8,N
1588322055.5,286046998.3,N
1588322075.3,286046999.6,N
1588322095.1,286047000.9,N
1588322115.9,286047001.0,N
1588322135.7,286046999.8,N
1588322155.6,286046999.0,N
1588322175.4,286047000.4,N
1588322195.2,286047001.5,N
1588322215.1,286047003.4,N
1588322216.0,286047003.4,N
1588322235.8,286047005.6,N
1588322255.7,286047005.0,N
1588322275.5,286047003.1,N
1588322295.3,286047002.4,N
1588322315.2,286047000.2,N
1588322335.0,286046999.8,N
1588322335.9,286046999.8,N
1588322355.7,286047002.2,N
1588322375.6,286047004.2,N
1588322395.4,286047005.4,N
1588322415.3,286047004.5,N
1588322435.1,286047005.0,N
1588322436.0,286047005.0,N
1588322455.8,286047004.1,N
1588322475.7,286047005.7,N
1588322495.5,286047005.1,N
1588322515.4,286047004.1,N
1588322535.2,286047002.5,N
1588322555.0,286047002.8,N
1588322555.9,286047002.8,N
1588322575.8,286047001.5,N
1588322595.6,286047003.2,N
1588322615.4,286047002.9,N
1588322635.3,286047003.2,N
1588322655.1,286047004.9,N
1588322675.9,286047007.3,Y
1588322695.7,286047001.5,P
1588322715.5,286047002.8,P
1588322735.4,286047001.8,N
1588322755.2,286047003.9,Y
1588322775.1,286046999.3,P
1588322776.0,286046999.3,N
1588322795.8,286046998.2,N
1588322815.6,286046999.4,N
1588322835.5,286046998.2,N
1588322855.3,286047000.2,N
1588322875.1,286047002.3,N
1588322895.9,286047001.7,N
1588322915.7,286047003.5,N
1588322935.6,286047002.0,N
1588322955.4,286047002.4,N
1588322975.2,286047000.4,N
1588322995.1,286046998.1,N
1588322996.0,286046998.1,N
1588323015.8,286046998.7,N
1588323035.7,286046998.9,N
1588323055.5,286046998.8,N
1588323075.3,286046998.6,N
1588323095.2,286047001.1,N
1588323115.0,286047000.9,N
1588323115.9,286047000.9,N
1588323135.7,286046998.6,N
1588323155.6,286046998.6,N
1588323175.4,286046998.5,N
1588323195.3,286046999.7,N
1588323215.1,286047000.6,N
1588323216.0,286047000.6,N
1588323235.8,286046999.7,N
1588323255.7,286046998.3,N
1588323275.5,286046998.2,N
1588323295.3,286046999.8,N
1588323315.2,286046999.8,N
1588323335.0,286047002.4,N
1588323335.9,286047002.4,N
1588323355.8,286047000.1,N
1588323375.6,286047002.7,N
1588323395.4,286047002.4,N
1588323415.3,286047000.3,N
1588323435.1,286047002.5,N
1588323455.9,286047000.0,N
1588323475.7,286046999.3,N
1588323495.5,286047000.1,N
1588323515.4,286047002.6,N
1588323535.2,286047001.1,N
1588323555.1,286046998.3,N
1588323556.0,286046998.3,N
1588323575.8,286046998.5,N
1588323595.6,286047000.1,N
